Location: Hannover
(52.3723°N, 9.7339°E)
Time: 04:36:29
(UTC+01:00)

ISS - Visible Passes

Search period start: 21 March 2019 00:00
Search period end: 31 March 2019 00:00
Orbit: 406 x 411 km, 51.6° (Epoch: 21 March)

Date Brightness Start Highest point End Pass type
(mag) Time Alt. Az. Time Alt. Az. Time Alt. Az.
21 Mar -1.1 20:28:51 10° SSW 20:28:52 10° SSW 20:28:52 10° SSW visible
22 Mar -1.8 19:38:52 10° SSE 19:40:26 13° SE 19:40:42 13° SE visible
22 Mar -1.0 21:13:13 10° SW 21:13:29 12° SW 21:13:29 12° SW visible
23 Mar -2.9 20:22:24 10° SW 20:25:05 31° SSE 20:25:05 31° SSE visible
24 Mar -2.4 19:31:47 10° SSW 19:34:27 23° SSE 19:36:30 14° E visible
24 Mar -2.3 21:07:23 10° WSW 21:09:15 31° WSW 21:09:15 31° WSW visible
25 Mar -3.6 20:16:22 10° WSW 20:19:36 51° SSE 20:20:32 37° ESE visible
25 Mar -0.9 21:52:45 10° W 21:53:16 14° W 21:53:16 14° W visible
26 Mar -3.1 19:25:28 10° SW 19:28:33 38° SSE 19:31:39 10° E visible
26 Mar -3.4 21:01:37 10° W 21:04:24 58° WSW 21:04:24 58° WSW visible
27 Mar -3.9 20:10:31 10° WSW 20:13:48 70° S 20:15:26 27° E visible
27 Mar -1.4 21:47:01 10° W 21:48:10 20° W 21:48:10 20° W visible
28 Mar -3.6 19:19:26 10° WSW 19:22:42 58° SSE 19:25:57 10° E visible
28 Mar -3.9 20:55:52 10° W 20:59:07 78° SSW 20:59:07 78° SSW visible
29 Mar -3.9 20:04:42 10° W 20:08:01 80° S 20:10:02 22° E visible
29 Mar -1.7 21:41:15 10° W 21:42:45 24° W 21:42:45 24° W visible
30 Mar -3.9 20:50:04 10° W 20:53:21 66° SSW 20:53:37 62° SSE visible
